Simultaneous Nadir Overpasses (SNOs) Predictions

Prediction of SNOs between AQUA and NOAA-19 Satellite Orbit:

Table of predicted SNOs for the next 14.0 days since TLE Epoch: 12/21/2013
Index Date (AQUA) Time (AQUA) Lat,Lon (AQUA) SZA (AQUA ) Date (NOAA-19) Time (NOAA-19) Lat,Lon (NOAA-19) SZA (NOAA-19 ) Distance(km) Time Diff (sec)
1 12/22/2013 20:39:31 70.85,-130.39 94.17 12/22/2013 20:38:41 70.84,-130.33 94.17 2.59 50
2 12/22/2013 21:28:11 -68.36, 40.64 88.30 12/22/2013 21:28:55 -68.36, 40.64 88.30 0.11 44
3 12/25/2013 01:24:07 71.82, 156.95 95.12 12/25/2013 01:23:07 71.83, 156.88 95.14 2.62 60
4 12/25/2013 02:12:33 -68.58, -30.69 88.13 12/25/2013 02:13:05 -68.57, -30.64 88.14 2.42 32
5 12/27/2013 06:08:27 71.95, 85.65 95.19 12/27/2013 06:07:16 71.96, 85.63 95.19 0.73 71
6 12/27/2013 06:57:01 -69.21,-102.57 87.59 12/27/2013 06:57:22 -69.21,-102.54 87.59 1.42 21
7 12/29/2013 10:56:52 81.75, -42.73 108.76 12/29/2013 10:55:39 81.09, -43.19 108.49 73.84 73
8 12/29/2013 11:41:25 -69.60,-174.15 87.32 12/29/2013 11:41:35 -69.59,-174.10 87.32 2.30 10
9 12/31/2013 16:25:54 -70.29, 113.81 86.78 12/31/2013 16:25:54 -70.29, 113.80 86.77 0.40 0
10 01/02/2014 21:10:19 -70.79, 42.00 86.46 01/02/2014 21:10:09 -70.79, 41.98 86.45 1.09 10




NCC Satellite Simultaneous Nadir Overpasses (SNOs) Prediction Service
